This demonstration page uses our WeatherBlox Daily Observations layout. Learn more.

Left ArrowRight Arrow

Hourly Observations for January 25, 2016

Temp ( °F °C ) Dew Point ( °F °C ) Humidity (%) Winds ( mph kmh ) Pressure ( in mb ) Visibility ( mi km ) Precip ( " mm )
12:59 am 00:59 Clear 26 -3.3 23 -5 88 88 Calm 30.22 1024 10 16 0.00 0.00
1:59 am 01:59 Mostly Clear 25 -3.9 21 -6.1 85 85 Calm 30.22 1024 10 16 0.00 0.00
2:59 am 02:59 Mostly Clear 26 -3.3 21 -6.1 81 81 Calm 30.23 1024 10 16 0.00 0.00
3:59 am 03:59 Mostly Clear 27 -2.8 22 -5.6 81 81 SW 3 6 30.23 1024 10 16 0.00 0.00
4:59 am 04:59 Mostly Clear 26 -3.3 21 -6.1 81 81 Calm 30.24 1024 10 16 0.00 0.00
5:59 am 05:59 Mostly Clear 26 -3.3 20 -6.7 78 78 S 5 7 30.27 1025 10 16 0.00 0.00
6:59 am 06:59 Partly Cloudy 26 -3.3 21 -6.1 81 81 S 3 6 30.29 1026 10 16 0.00 0.00
7:59 am 07:59 Partly Cloudy 31 -0.6 24 -4.4 76 76 S 6 9 30.30 1026 10 16 0.00 0.00
8:59 am 08:59 Mostly Cloudy 37 2.8 26 -3.3 65 65 S 3 6 30.32 1027 10 16 0.00 0.00
9:59 am 09:59 Mostly Cloudy 42 5.6 25 -3.9 51 51 SSW 6 9 30.34 1028 10 16 0.00 0.00
10:59 am 10:59 Mostly Cloudy 45 7.2 24 -4.4 44 44 SSW 9 15 30.35 1028 10 16 0.00 0.00
11:59 am 11:59 Cloudy 46 7.8 24 -4.4 42 42 SSW 7 11 30.34 1027 10 16 0.00 0.00
12:59 pm 12:59 Mostly Cloudy 49 9.4 24 -4.4 38 38 SSW 9 15 30.31 1027 10 16 0.00 0.00
1:59 pm 13:59 Mostly Cloudy 51 10.6 24 -4.4 35 35 S 8 13 30.29 1026 10 16 0.00 0.00
2:59 pm 14:59 Mostly Cloudy 50 10 23 -5 35 35 S 7 11 30.28 1025 10 16 0.00 0.00
3:59 pm 15:59 Mostly Cloudy 50 10 25 -3.9 38 38 S 8 13 30.29 1026 10 16 0.00 0.00
4:59 pm 16:59 Mostly Cloudy 49 9.4 24 -4.4 38 38 S 6 9 30.30 1026 10 16 0.00 0.00
5:59 pm 17:59 Mostly Cloudy 46 7.8 24 -4.4 42 42 SSE 6 9 30.31 1026 10 16 0.00 0.00
6:59 pm 18:59 Mostly Cloudy 45 7.2 25 -3.9 46 46 SSE 7 11 30.31 1026 10 16 0.00 0.00
7:59 pm 19:59 Mostly Cloudy 43 6.1 24 -4.4 47 47 S 7 11 30.31 1026 10 16 0.00 0.00
8:59 pm 20:59 Mostly Cloudy 43 6.1 23 -5 45 45 S 8 13 30.31 1027 10 16 0.00 0.00
9:59 pm 21:59 Mostly Cloudy 42 5.6 24 -4.4 49 49 S 9 15 30.30 1026 10 16 0.00 0.00
10:59 pm 22:59 Mostly Cloudy 42 5.6 27 -2.8 55 55 S 7 11 30.29 1026 10 16 0.00 0.00
11:59 pm 23:59 Mostly Cloudy 42 5.6 29 -1.7 60 60 S 7 11 30.28 1026 10 16 0.00 0.00

Powered by AerisWeather